FM-6

Last updated on Sat Apr 26 2025 00:02:41 GMT+0000 (Coordinated Universal Time)

1 39360U 13058A 25115.54950389 -.00000014 00000+0 00000+0 0 9999 2 39360 0.0176 277.0910 0000662 239.2926 139.0885 1.00272650 42159
UTC large
Height (km)
Speed (km/s)
/
Latitude / Longitude
Inclination (degrees)
Orbital Period (minutes)
Azimuth
Elevation
Range (km)
Doppler Factor

Next 0 passes for location: London (51.5072 / 0.1276)

Sorry there are no passes over London.